STARLINK-1718, 46674

Orbit data source: Space-Track

STARLINK-1718, 46674 is a payload satellite owned by SpaceX/Seattle (US) in LEO that was launched on Sun, 18 Oct 2020 UTC via an FALCON 9 launch vehicle from the Air Force Eastern Test Range (AFETR). Payload-class satellites include a variety of spacecraft equipped with specific instruments for various scientific and technological missions. These include communications satellites like Starlink; space stations such as the ISS; scientific satellites like the Hubble; Earth observation satellites from companies like Planet Labs, Umbra, and HawkEye 360; GPS; miniature CubeSats for education and research; and military/defense satellites.

Loading next visibility...
Identifier
46674, 2020-073E
Orbit
LEO
Country
Flag of USUS
Related business
Manufacturer
SpaceX/Seattle
Mission
Partially operational Commercial Communications
Bus & Motor
STARLINK, Unknown motor
Mass
260 kg wet, ~248 kg dry
Launch date (UTC)
2020-10-18 (6 years ago)
Launch vehicle
FALCON 9
Launch site
Air Force Eastern Test Range (AFETR)
Object type
Payload
Rocket body
Debris
Shape & HBR
Box + 1 Pan, 10.1 m
Radar Cross Section
13.562 m², Large (>1 m²)

Expand to show TLE details & history
Last TLE update: 9 hours ago

TLE from 9 hours ago
0 STARLINK-1718
1 46674U 20073E   26119.20482822  .00067280  00000-0  64059-3 0  9996
2 46674  53.0458 341.4584 0005385 135.2218 224.9233 15.66201479305213
Epoch: 2026-04-29T04:54Z
TLE epoch observation values (Epoch: 2026-04-29T04:54:57.158Z)
Latitude
0.00005°
Longitude
50.55114°
Altitude
373.261 km
Speed
7.685 km/s
True Right ascension
22h 45m 50s
True Declination
0° 00' 00"
Sunlit
Object was in daylight at epoch
Visualization orbit readout
Latitude
Unknown
Longitude
Unknown
Altitude
Unknown
Speed
Unknown
Apparent Right ascension
Unknown
Apparent Declination
Unknown
Sunlit
N/A
Visualization observer readout
Local Sidereal Time
21:17:15
Azimuth
Unknown
Elevation
Unknown
Doppler factor
Unknown
Orbital elements
Apogee altitude
373.698 km
Perigee altitude
366.431 km
Semi-major axis
6,748.202 km
Eccentricity
0.00054
Inclination
53.0458°
RAAN
341.4584°
Arg. of periapsis
135.2218°
True anomaly
224.87975°
Mean anomaly
224.9233°
Eccentric anomaly
224.90152°
Mean motion
3.91526 °/min
Orbital period
91.95 mins
BSTAR
0.00064059
Loading maneuver chart data...
Computing Atmospheric mass density...

Documentation

Showing up to 5 results
|